Year,Month,Day,Hour,Minute,Value (Times are PST for windspeed in km/hr)
2018,02,18,00,00,15.10
2018,02,18,00,01,13.90
2018,02,18,00,02,15.90
2018,02,18,00,03,12.40
2018,02,18,00,04,12.80
2018,02,18,00,05,12.50
2018,02,18,00,06,12.00
2018,02,18,00,07,10.80
2018,02,18,00,08,8.70
2018,02,18,00,09,8.70
2018,02,18,00,10,9.60
2018,02,18,00,11,10.00
2018,02,18,00,12,7.80
2018,02,18,00,13,9.90
2018,02,18,00,14,13.90
2018,02,18,00,15,12.10
2018,02,18,00,16,11.40
2018,02,18,00,17,11.30
2018,02,18,00,18,10.30
2018,02,18,00,19,9.70
2018,02,18,00,20,9.60
2018,02,18,00,21,11.40
2018,02,18,00,22,10.70
2018,02,18,00,23,8.80
2018,02,18,00,24,9.40
2018,02,18,00,25,10.50
2018,02,18,00,26,10.30
2018,02,18,00,27,10.80
2018,02,18,00,28,12.00
2018,02,18,00,29,11.00
2018,02,18,00,30,10.40
2018,02,18,00,31,9.70
2018,02,18,00,32,9.70
2018,02,18,00,33,10.50
2018,02,18,00,34,11.00
2018,02,18,00,35,10.40
2018,02,18,00,36,10.30
2018,02,18,00,37,11.60
2018,02,18,00,38,12.30
2018,02,18,00,39,12.20
2018,02,18,00,40,15.10
2018,02,18,00,41,13.00
2018,02,18,00,42,15.00
2018,02,18,00,43,14.60
2018,02,18,00,44,9.60
2018,02,18,00,45,10.90
2018,02,18,00,46,12.00
2018,02,18,00,47,10.80
2018,02,18,00,48,12.30
2018,02,18,00,49,12.20
2018,02,18,00,50,11.00
2018,02,18,00,51,9.30
2018,02,18,00,52,12.60
2018,02,18,00,53,10.40
2018,02,18,00,54,9.10
2018,02,18,00,55,12.90
2018,02,18,00,56,11.00
2018,02,18,00,57,11.80
2018,02,18,00,58,10.50
2018,02,18,00,59,10.60
2018,02,18,01,00,9.20
2018,02,18,01,01,9.90
2018,02,18,01,02,10.50
2018,02,18,01,03,10.20
2018,02,18,01,04,9.20
2018,02,18,01,05,9.50
2018,02,18,01,06,10.00
2018,02,18,01,07,9.20
2018,02,18,01,08,9.00
2018,02,18,01,09,8.30
2018,02,18,01,10,9.30
2018,02,18,01,11,8.30
2018,02,18,01,12,7.30
2018,02,18,01,13,7.40
2018,02,18,01,14,6.80
2018,02,18,01,15,6.40
2018,02,18,01,16,9.00
2018,02,18,01,17,7.40
2018,02,18,01,18,6.50
2018,02,18,01,19,7.70
2018,02,18,01,20,5.70
2018,02,18,01,21,5.90
2018,02,18,01,22,6.60
2018,02,18,01,23,5.10
2018,02,18,01,24,5.90
2018,02,18,01,25,5.70
2018,02,18,01,26,6.20
2018,02,18,01,27,7.10
2018,02,18,01,28,9.60
2018,02,18,01,29,8.80
2018,02,18,01,30,7.80
2018,02,18,01,31,8.70
2018,02,18,01,32,9.30
2018,02,18,01,33,15.00
2018,02,18,01,34,15.90
2018,02,18,01,35,14.20
2018,02,18,01,36,12.40
2018,02,18,01,37,12.30
2018,02,18,01,38,12.40
2018,02,18,01,39,12.30
2018,02,18,01,40,12.20
2018,02,18,01,41,11.50
2018,02,18,01,42,10.00
2018,02,18,01,43,8.70
2018,02,18,01,44,8.80
2018,02,18,01,45,10.20
2018,02,18,01,46,11.30
2018,02,18,01,47,9.50
2018,02,18,01,48,10.70
2018,02,18,01,49,8.90
2018,02,18,01,50,14.10
2018,02,18,01,51,12.30
2018,02,18,01,52,11.40
2018,02,18,01,53,11.50
2018,02,18,01,54,9.70
2018,02,18,01,55,11.30
2018,02,18,01,56,9.40
2018,02,18,01,57,8.10
2018,02,18,01,58,8.30
2018,02,18,01,59,7.00
2018,02,18,02,00,6.70
2018,02,18,02,01,6.80
2018,02,18,02,02,6.20
2018,02,18,02,03,5.40
2018,02,18,02,04,4.50
2018,02,18,02,05,5.80
2018,02,18,02,06,5.80
2018,02,18,02,07,5.70
2018,02,18,02,08,5.50
2018,02,18,02,09,7.00
2018,02,18,02,10,5.60
2018,02,18,02,11,5.10
2018,02,18,02,12,5.90
2018,02,18,02,13,7.20
2018,02,18,02,14,7.10
2018,02,18,02,15,7.00
2018,02,18,02,16,7.60
2018,02,18,02,17,7.40
2018,02,18,02,18,7.80
2018,02,18,02,19,8.30
2018,02,18,02,20,7.70
2018,02,18,02,21,7.00
2018,02,18,02,22,8.30
2018,02,18,02,23,6.60
2018,02,18,02,24,6.90
2018,02,18,02,25,6.90
2018,02,18,02,26,6.90
2018,02,18,02,27,5.50
2018,02,18,02,28,6.50
2018,02,18,02,29,6.40
2018,02,18,02,30,6.70
2018,02,18,02,31,5.10
2018,02,18,02,32,5.00
2018,02,18,02,33,5.60
2018,02,18,02,34,5.70
2018,02,18,02,35,5.10
2018,02,18,02,36,5.70
2018,02,18,02,37,5.70
2018,02,18,02,38,5.20
2018,02,18,02,39,4.70
2018,02,18,02,40,5.40
2018,02,18,02,41,5.00
2018,02,18,02,42,6.40
2018,02,18,02,43,6.90
2018,02,18,02,44,6.50
2018,02,18,02,45,5.30
2018,02,18,02,46,4.40
2018,02,18,02,47,6.80
2018,02,18,02,48,4.20
2018,02,18,02,49,4.80
2018,02,18,02,50,5.20
2018,02,18,02,51,4.10
2018,02,18,02,52,5.70
2018,02,18,02,53,5.10
2018,02,18,02,54,4.40
2018,02,18,02,55,5.00
2018,02,18,02,56,5.20
2018,02,18,02,57,4.80
2018,02,18,02,58,5.20
2018,02,18,02,59,5.10
2018,02,18,03,00,5.90
2018,02,18,03,01,5.10
2018,02,18,03,02,5.80
2018,02,18,03,03,4.50
2018,02,18,03,04,4.00
2018,02,18,03,05,3.90
2018,02,18,03,06,4.10
2018,02,18,03,07,4.70
2018,02,18,03,08,4.80
2018,02,18,03,09,4.00
2018,02,18,03,10,5.10
2018,02,18,03,11,3.70
2018,02,18,03,12,3.90
2018,02,18,03,13,5.40
2018,02,18,03,14,3.80
2018,02,18,03,15,4.50
2018,02,18,03,16,4.30
2018,02,18,03,17,4.90
2018,02,18,03,18,5.80
2018,02,18,03,19,5.80
2018,02,18,03,20,6.10
2018,02,18,03,21,4.40
2018,02,18,03,22,5.70
2018,02,18,03,23,4.50
2018,02,18,03,24,3.90
2018,02,18,03,25,6.30
2018,02,18,03,26,6.00
2018,02,18,03,27,3.70
2018,02,18,03,28,4.70
2018,02,18,03,29,5.30
2018,02,18,03,30,5.30
2018,02,18,03,31,6.70
2018,02,18,03,32,6.80
2018,02,18,03,33,6.60
2018,02,18,03,34,6.30
2018,02,18,03,35,6.30
2018,02,18,03,36,6.40
2018,02,18,03,37,6.80
2018,02,18,03,38,5.10
2018,02,18,03,39,7.20
2018,02,18,03,40,5.80
2018,02,18,03,41,5.70
2018,02,18,03,42,4.50
2018,02,18,03,43,4.40
2018,02,18,03,44,4.80
2018,02,18,03,45,4.70
2018,02,18,03,46,4.30
2018,02,18,03,47,5.00
2018,02,18,03,48,5.50
2018,02,18,03,49,6.20
2018,02,18,03,50,4.20
2018,02,18,03,51,3.50
2018,02,18,03,52,4.40
2018,02,18,03,53,3.80
2018,02,18,03,54,5.50
2018,02,18,03,55,3.70
2018,02,18,03,56,3.20
2018,02,18,03,57,2.40
2018,02,18,03,58,2.40
2018,02,18,03,59,2.20
2018,02,18,04,00,1.80
2018,02,18,04,01,2.20
2018,02,18,04,02,0.70
2018,02,18,04,03,1.20
2018,02,18,04,04,1.10
2018,02,18,04,05,0.40
2018,02,18,04,06,0.00
2018,02,18,04,07,0.00
2018,02,18,04,08,1.50
2018,02,18,04,09,0.20
2018,02,18,04,10,2.40
2018,02,18,04,11,2.10
2018,02,18,04,12,1.50
2018,02,18,04,13,0.50
2018,02,18,04,14,2.10
2018,02,18,04,15,1.70
2018,02,18,04,16,0.30
2018,02,18,04,17,0.10
2018,02,18,04,18,0.80
2018,02,18,04,19,0.30
2018,02,18,04,20,0.60
2018,02,18,04,21,0.60
2018,02,18,04,22,1.50
2018,02,18,04,23,1.20
2018,02,18,04,24,1.20
2018,02,18,04,25,0.70
2018,02,18,04,26,0.80
2018,02,18,04,27,0.70
2018,02,18,04,28,0.90
2018,02,18,04,29,0.50
2018,02,18,04,30,0.90
2018,02,18,04,31,0.10
2018,02,18,04,32,0.00
2018,02,18,04,33,0.00
2018,02,18,04,34,0.00
2018,02,18,04,35,0.50
2018,02,18,04,36,0.70
2018,02,18,04,37,1.50
2018,02,18,04,38,1.10
2018,02,18,04,39,0.60
2018,02,18,04,40,0.20
2018,02,18,04,41,0.50
2018,02,18,04,42,0.20
2018,02,18,04,43,0.00
2018,02,18,04,44,0.30
2018,02,18,04,45,0.00
2018,02,18,04,46,0.00
2018,02,18,04,47,0.10
2018,02,18,04,48,0.30
2018,02,18,04,49,0.00
2018,02,18,04,50,0.20
2018,02,18,04,51,0.10
2018,02,18,04,52,0.60
2018,02,18,04,53,0.30
2018,02,18,04,54,0.80
2018,02,18,04,55,0.50
2018,02,18,04,56,0.90
2018,02,18,04,57,1.50
2018,02,18,04,58,1.90
2018,02,18,04,59,2.00
2018,02,18,05,00,1.20
2018,02,18,05,01,1.50
2018,02,18,05,02,0.70
2018,02,18,05,03,1.00
2018,02,18,05,04,0.50
2018,02,18,05,05,0.50
2018,02,18,05,06,0.00
2018,02,18,05,07,1.30
2018,02,18,05,08,1.00
2018,02,18,05,09,0.00
2018,02,18,05,10,2.30
2018,02,18,05,11,2.40
2018,02,18,05,12,3.10
2018,02,18,05,13,1.00
2018,02,18,05,14,0.00
2018,02,18,05,15,1.10
2018,02,18,05,16,1.80
2018,02,18,05,17,0.90
2018,02,18,05,18,2.70
2018,02,18,05,19,1.30
2018,02,18,05,20,1.40
2018,02,18,05,21,0.10
2018,02,18,05,22,0.10
2018,02,18,05,23,2.80
2018,02,18,05,24,3.20
2018,02,18,05,25,1.80
2018,02,18,05,26,1.20
2018,02,18,05,27,0.40
2018,02,18,05,28,1.40
2018,02,18,05,29,4.10
2018,02,18,05,30,1.10
2018,02,18,05,31,2.20
2018,02,18,05,32,2.30
2018,02,18,05,33,5.20
2018,02,18,05,34,3.70
2018,02,18,05,35,3.50
2018,02,18,05,36,3.40
2018,02,18,05,37,3.30
2018,02,18,05,38,3.50
2018,02,18,05,39,4.40
2018,02,18,05,40,1.20
2018,02,18,05,41,5.00
2018,02,18,05,42,1.10
2018,02,18,05,43,0.60
2018,02,18,05,44,4.50
2018,02,18,05,45,3.40
2018,02,18,05,46,1.30
2018,02,18,05,47,3.20
2018,02,18,05,48,2.50
2018,02,18,05,49,1.70
2018,02,18,05,50,2.40
2018,02,18,05,51,5.40
2018,02,18,05,52,2.60
2018,02,18,05,53,3.50
2018,02,18,05,54,3.10
2018,02,18,05,55,1.80
2018,02,18,05,56,3.00
2018,02,18,05,57,3.50
2018,02,18,05,58,1.30
2018,02,18,05,59,2.40
2018,02,18,06,00,3.20
2018,02,18,06,01,4.20
2018,02,18,06,02,2.40
2018,02,18,06,03,3.30
2018,02,18,06,04,2.40
2018,02,18,06,05,2.10
2018,02,18,06,06,2.80
2018,02,18,06,07,2.10
2018,02,18,06,08,1.50
2018,02,18,06,09,2.40
2018,02,18,06,10,2.40
2018,02,18,06,11,3.60
2018,02,18,06,12,3.40
2018,02,18,06,13,5.10
2018,02,18,06,14,4.00
2018,02,18,06,15,4.90
2018,02,18,06,16,2.50
2018,02,18,06,17,1.80
2018,02,18,06,18,3.10
2018,02,18,06,19,0.60
2018,02,18,06,20,5.30
2018,02,18,06,21,0.80
2018,02,18,06,22,1.90
2018,02,18,06,23,1.60
2018,02,18,06,24,1.70
2018,02,18,06,25,3.10
2018,02,18,06,26,1.50
2018,02,18,06,27,3.80
2018,02,18,06,28,4.10
2018,02,18,06,29,4.50
2018,02,18,06,30,5.70
2018,02,18,06,31,1.50
2018,02,18,06,32,3.20
2018,02,18,06,33,4.80
2018,02,18,06,34,2.40
2018,02,18,06,35,2.30
2018,02,18,06,36,3.00
2018,02,18,06,37,4.00
2018,02,18,06,38,2.70
2018,02,18,06,39,4.10
2018,02,18,06,40,4.20
2018,02,18,06,41,2.30
2018,02,18,06,42,2.40
2018,02,18,06,43,4.40
2018,02,18,06,44,7.10
2018,02,18,06,45,3.70
2018,02,18,06,46,0.60
2018,02,18,06,47,2.80
2018,02,18,06,48,2.40
2018,02,18,06,49,2.40
2018,02,18,06,50,1.80
2018,02,18,06,51,2.00
2018,02,18,06,52,1.10
2018,02,18,06,53,2.60
2018,02,18,06,54,3.70
2018,02,18,06,55,4.30
2018,02,18,06,56,4.30
2018,02,18,06,57,4.20
2018,02,18,06,58,7.30
2018,02,18,06,59,3.10
2018,02,18,07,00,3.90
2018,02,18,07,01,4.50
2018,02,18,07,02,0.60
2018,02,18,07,03,5.40
2018,02,18,07,04,5.90
2018,02,18,07,05,2.10
2018,02,18,07,06,3.00
2018,02,18,07,07,2.10
2018,02,18,07,08,5.70
2018,02,18,07,09,7.20
2018,02,18,07,10,4.40
2018,02,18,07,11,4.80
2018,02,18,07,12,2.60
2018,02,18,07,13,1.90
2018,02,18,07,14,1.10
2018,02,18,07,15,6.30
2018,02,18,07,16,5.70
2018,02,18,07,17,1.40
2018,02,18,07,18,0.60
2018,02,18,07,19,3.50
2018,02,18,07,20,3.10
2018,02,18,07,21,3.50
2018,02,18,07,22,6.20
2018,02,18,07,23,3.60
2018,02,18,07,24,2.60
2018,02,18,07,25,4.70
2018,02,18,07,26,3.60
2018,02,18,07,27,3.00
2018,02,18,07,28,3.10
2018,02,18,07,29,2.50
2018,02,18,07,30,4.20
2018,02,18,07,31,6.60
2018,02,18,07,32,5.40
2018,02,18,07,33,5.30
2018,02,18,07,34,7.60
2018,02,18,07,35,8.00
2018,02,18,07,36,5.90
2018,02,18,07,37,5.80
2018,02,18,07,38,3.50
2018,02,18,07,39,3.10
2018,02,18,07,40,6.40
2018,02,18,07,41,4.50
2018,02,18,07,42,13.00
2018,02,18,07,43,4.40
2018,02,18,07,44,3.90
2018,02,18,07,45,3.50
2018,02,18,07,46,5.40
2018,02,18,07,47,5.00
2018,02,18,07,48,6.90
2018,02,18,07,49,6.60
2018,02,18,07,50,5.70
2018,02,18,07,51,5.30
2018,02,18,07,52,6.70
2018,02,18,07,53,6.30
2018,02,18,07,54,5.00
2018,02,18,07,55,4.00
2018,02,18,07,56,5.00
2018,02,18,07,57,6.40
2018,02,18,07,58,3.30
2018,02,18,07,59,11.10
2018,02,18,08,00,6.00
2018,02,18,08,01,4.80
2018,02,18,08,02,4.30
2018,02,18,08,03,5.60
2018,02,18,08,04,3.40
2018,02,18,08,05,4.90
2018,02,18,08,06,4.60
2018,02,18,08,07,5.40
2018,02,18,08,08,5.10
2018,02,18,08,09,3.80
2018,02,18,08,10,4.60
2018,02,18,08,11,4.70
2018,02,18,08,12,3.00
2018,02,18,08,13,5.50
2018,02,18,08,14,3.40
2018,02,18,08,15,2.20
2018,02,18,08,16,4.50
2018,02,18,08,17,4.10
2018,02,18,08,18,4.50
2018,02,18,08,19,4.10
2018,02,18,08,20,4.40
2018,02,18,08,21,5.80
2018,02,18,08,22,5.40
2018,02,18,08,23,4.00
2018,02,18,08,24,3.60
2018,02,18,08,25,6.00
2018,02,18,08,26,4.30
2018,02,18,08,27,6.40
2018,02,18,08,28,5.00
2018,02,18,08,29,8.20
2018,02,18,08,30,5.70
2018,02,18,08,31,6.20
2018,02,18,08,32,4.00
2018,02,18,08,33,3.60
2018,02,18,08,34,3.40
2018,02,18,08,35,2.00
2018,02,18,08,36,2.00
2018,02,18,08,37,2.10
2018,02,18,08,38,2.80
2018,02,18,08,39,9.00
2018,02,18,08,40,3.60
2018,02,18,08,41,8.10
2018,02,18,08,42,3.60
2018,02,18,08,43,3.40
2018,02,18,08,44,3.60
2018,02,18,08,45,8.10
2018,02,18,08,46,3.90
2018,02,18,08,47,3.80
2018,02,18,08,48,5.70
2018,02,18,08,49,6.00
2018,02,18,08,50,4.80
2018,02,18,08,51,2.30
2018,02,18,08,52,4.30
2018,02,18,08,53,6.70
2018,02,18,08,54,2.60
2018,02,18,08,55,5.00
2018,02,18,08,56,4.50
2018,02,18,08,57,4.00
2018,02,18,08,58,2.80
2018,02,18,08,59,4.00
2018,02,18,09,00,4.80
2018,02,18,09,01,5.00
2018,02,18,09,02,5.60
2018,02,18,09,03,2.60
2018,02,18,09,04,5.30
2018,02,18,09,05,3.20
2018,02,18,09,06,3.80
2018,02,18,09,07,4.40
2018,02,18,09,08,2.80
2018,02,18,09,09,6.60
2018,02,18,09,10,2.50
2018,02,18,09,11,3.90
2018,02,18,09,12,3.70
2018,02,18,09,13,7.10
2018,02,18,09,14,3.90
2018,02,18,09,15,7.10
2018,02,18,09,16,8.90
2018,02,18,09,17,5.80
2018,02,18,09,18,4.00
2018,02,18,09,19,1.30
2018,02,18,09,20,3.70
2018,02,18,09,21,6.70
2018,02,18,09,22,4.70
2018,02,18,09,23,3.10
2018,02,18,09,24,2.30
2018,02,18,09,25,6.60
2018,02,18,09,26,4.80
2018,02,18,09,27,5.60
2018,02,18,09,28,9.30
2018,02,18,09,29,5.20
2018,02,18,09,30,5.70
2018,02,18,09,31,5.50
2018,02,18,09,32,5.50
2018,02,18,09,33,5.40
2018,02,18,09,34,3.70
2018,02,18,09,35,4.00
2018,02,18,09,36,5.20
2018,02,18,09,37,5.60
2018,02,18,09,38,7.00
2018,02,18,09,39,3.60
2018,02,18,09,40,5.30
2018,02,18,09,41,2.90
2018,02,18,09,42,5.80
2018,02,18,09,43,4.20
2018,02,18,09,44,6.10
2018,02,18,09,45,3.10
2018,02,18,09,46,3.00
2018,02,18,09,47,7.30
2018,02,18,09,48,2.20
2018,02,18,09,49,5.90
2018,02,18,09,50,2.50
2018,02,18,09,51,4.30
2018,02,18,09,52,3.90
2018,02,18,09,53,4.80
2018,02,18,09,54,5.70
2018,02,18,09,55,8.30
2018,02,18,09,56,4.80
2018,02,18,09,57,8.20
2018,02,18,09,58,6.30
2018,02,18,09,59,3.50
2018,02,18,10,00,6.10
2018,02,18,10,01,4.10
2018,02,18,10,02,2.80
2018,02,18,10,03,2.30
2018,02,18,10,04,4.20
2018,02,18,10,05,5.60
2018,02,18,10,06,5.10
2018,02,18,10,07,5.70
2018,02,18,10,08,4.50
2018,02,18,10,09,4.50
2018,02,18,10,10,6.10
2018,02,18,10,11,4.90
2018,02,18,10,12,6.10
2018,02,18,10,13,3.80
2018,02,18,10,14,2.80
2018,02,18,10,15,6.20
2018,02,18,10,16,5.50
2018,02,18,10,17,4.20
2018,02,18,10,18,8.00
2018,02,18,10,19,8.30
2018,02,18,10,20,4.90
2018,02,18,10,21,4.20
2018,02,18,10,22,4.20
2018,02,18,10,23,2.80
2018,02,18,10,24,7.30
2018,02,18,10,25,4.50
2018,02,18,10,26,5.90
2018,02,18,10,27,7.40
2018,02,18,10,28,6.70
2018,02,18,10,29,4.40
2018,02,18,10,30,4.60
2018,02,18,10,31,3.90
2018,02,18,10,32,3.40
2018,02,18,10,33,3.60
2018,02,18,10,34,3.40
2018,02,18,10,35,3.10
2018,02,18,10,36,3.20
2018,02,18,10,37,3.90
2018,02,18,10,38,1.70
2018,02,18,10,39,5.50
2018,02,18,10,40,1.70
2018,02,18,10,41,4.10
2018,02,18,10,42,2.60
2018,02,18,10,43,3.50
2018,02,18,10,44,2.50
2018,02,18,10,45,2.40
2018,02,18,10,46,1.40
2018,02,18,10,47,4.10
2018,02,18,10,48,4.80
2018,02,18,10,49,7.90
2018,02,18,10,50,7.20
2018,02,18,10,51,4.80
2018,02,18,10,52,5.20
2018,02,18,10,53,5.70
2018,02,18,10,54,4.70
2018,02,18,10,55,3.00
2018,02,18,10,56,3.10
2018,02,18,10,57,8.10
2018,02,18,10,58,3.70
2018,02,18,10,59,3.80
2018,02,18,11,00,1.50
2018,02,18,11,01,1.40
2018,02,18,11,02,6.20
2018,02,18,11,03,3.50
2018,02,18,11,04,1.20
2018,02,18,11,05,3.70
2018,02,18,11,06,3.70
2018,02,18,11,07,5.50
2018,02,18,11,08,5.40
2018,02,18,11,09,4.70
2018,02,18,11,10,4.10
2018,02,18,11,11,2.90
2018,02,18,11,12,6.40
2018,02,18,11,13,4.50
2018,02,18,11,14,5.90
2018,02,18,11,15,5.40
2018,02,18,11,16,4.00
2018,02,18,11,17,2.80
2018,02,18,11,18,4.40
2018,02,18,11,19,2.50
2018,02,18,11,20,2.20
2018,02,18,11,21,6.60
2018,02,18,11,22,1.80
2018,02,18,11,23,3.70
2018,02,18,11,24,2.50
2018,02,18,11,25,6.20
2018,02,18,11,26,4.50
2018,02,18,11,27,5.40
2018,02,18,11,28,6.20
2018,02,18,11,29,5.60
2018,02,18,11,30,4.80
2018,02,18,11,31,5.30
2018,02,18,11,32,5.70
2018,02,18,11,33,3.10
2018,02,18,11,34,5.60
2018,02,18,11,35,4.60
2018,02,18,11,36,4.10
2018,02,18,11,37,7.70
2018,02,18,11,38,4.60
2018,02,18,11,39,3.40
2018,02,18,11,40,1.80
2018,02,18,11,41,3.20
2018,02,18,11,42,5.20
2018,02,18,11,43,3.70
2018,02,18,11,44,2.20
2018,02,18,11,45,2.30
2018,02,18,11,46,5.20
2018,02,18,11,47,2.40
2018,02,18,11,48,3.30
2018,02,18,11,49,2.80
2018,02,18,11,50,2.80
2018,02,18,11,51,4.80
2018,02,18,11,52,5.40
2018,02,18,11,53,4.70
2018,02,18,11,54,3.40
2018,02,18,11,55,4.70
2018,02,18,11,56,3.10
2018,02,18,11,57,6.10
2018,02,18,11,58,5.00
2018,02,18,11,59,5.10
2018,02,18,12,00,3.60
2018,02,18,12,01,3.30
2018,02,18,12,02,3.80
2018,02,18,12,03,5.90
2018,02,18,12,04,8.00
2018,02,18,12,05,4.50
2018,02,18,12,06,2.50
2018,02,18,12,07,4.00
2018,02,18,12,08,1.20
2018,02,18,12,09,3.40
2018,02,18,12,10,3.10
2018,02,18,12,11,4.80
2018,02,18,12,12,2.80
2018,02,18,12,13,2.10
2018,02,18,12,14,3.40
2018,02,18,12,15,9.40
2018,02,18,12,16,4.30
2018,02,18,12,17,4.10
2018,02,18,12,18,3.90
2018,02,18,12,19,5.90
2018,02,18,12,20,3.60
2018,02,18,12,21,5.80
2018,02,18,12,22,6.40
2018,02,18,12,23,3.80
2018,02,18,12,24,3.40
2018,02,18,12,25,2.90
2018,02,18,12,26,4.80
2018,02,18,12,27,7.70
2018,02,18,12,28,2.10
2018,02,18,12,29,1.90
2018,02,18,12,30,4.20
2018,02,18,12,31,1.00
2018,02,18,12,32,3.10
2018,02,18,12,33,4.30
2018,02,18,12,34,3.20
2018,02,18,12,35,6.70
2018,02,18,12,36,3.40
2018,02,18,12,37,4.20
2018,02,18,12,38,2.40
2018,02,18,12,39,5.30
2018,02,18,12,40,4.00
2018,02,18,12,41,10.00
2018,02,18,12,42,2.80
2018,02,18,12,43,1.50
2018,02,18,12,44,5.60
2018,02,18,12,45,4.20
2018,02,18,12,46,4.50
2018,02,18,12,47,6.30
2018,02,18,12,48,5.50
2018,02,18,12,49,6.10
2018,02,18,12,50,2.10
2018,02,18,12,51,3.20
2018,02,18,12,52,4.40
2018,02,18,12,53,5.60
2018,02,18,12,54,3.40
2018,02,18,12,55,5.60
2018,02,18,12,56,4.40
2018,02,18,12,57,4.90
2018,02,18,12,58,2.80
2018,02,18,12,59,4.80
2018,02,18,13,00,3.40
2018,02,18,13,01,5.70
2018,02,18,13,02,9.20
2018,02,18,13,03,3.80
2018,02,18,13,04,8.10
2018,02,18,13,05,7.00
2018,02,18,13,06,7.50
2018,02,18,13,07,6.20
2018,02,18,13,08,6.90
2018,02,18,13,09,4.70
2018,02,18,13,10,5.70
2018,02,18,13,11,6.30
2018,02,18,13,12,7.20
2018,02,18,13,13,4.90
2018,02,18,13,14,4.20
2018,02,18,13,15,4.60
2018,02,18,13,16,9.50
2018,02,18,13,17,4.20
2018,02,18,13,18,4.50
2018,02,18,13,19,8.10
2018,02,18,13,20,3.20
2018,02,18,13,21,2.90
2018,02,18,13,22,5.10
2018,02,18,13,23,9.40
2018,02,18,13,24,3.40
2018,02,18,13,25,6.70
2018,02,18,13,26,4.50
2018,02,18,13,27,6.10
2018,02,18,13,28,5.20
2018,02,18,13,29,5.10
2018,02,18,13,30,3.00
2018,02,18,13,31,7.10
2018,02,18,13,32,3.10
2018,02,18,13,33,3.40
2018,02,18,13,34,9.20
2018,02,18,13,35,6.50
2018,02,18,13,36,2.20
2018,02,18,13,37,4.40
2018,02,18,13,38,8.40
2018,02,18,13,39,5.00
2018,02,18,13,40,5.50
2018,02,18,13,41,5.20
2018,02,18,13,42,5.00
2018,02,18,13,43,2.90
2018,02,18,13,44,3.30
2018,02,18,13,45,7.90
2018,02,18,13,46,5.90
2018,02,18,13,47,6.70
2018,02,18,13,48,5.70
2018,02,18,13,49,5.90
2018,02,18,13,50,1.70
2018,02,18,13,51,7.50
2018,02,18,13,52,5.10
2018,02,18,13,53,6.40
2018,02,18,13,54,7.70
2018,02,18,13,55,2.60
2018,02,18,13,56,4.50
2018,02,18,13,57,3.60
2018,02,18,13,58,5.70
2018,02,18,13,59,5.90
2018,02,18,14,00,3.60
2018,02,18,14,01,3.00
2018,02,18,14,02,3.40
2018,02,18,14,03,6.90
2018,02,18,14,04,6.00
2018,02,18,14,05,6.40
2018,02,18,14,06,6.30
2018,02,18,14,07,4.90
2018,02,18,14,08,2.80
2018,02,18,14,09,2.60
2018,02,18,14,10,6.70
2018,02,18,14,11,4.00
2018,02,18,14,12,8.40
2018,02,18,14,13,9.80
2018,02,18,14,14,7.20
2018,02,18,14,15,5.70
2018,02,18,14,16,5.90
2018,02,18,14,17,7.50
2018,02,18,14,18,5.20
2018,02,18,14,19,8.40
2018,02,18,14,20,5.10
2018,02,18,14,21,4.10
2018,02,18,14,22,5.00
2018,02,18,14,23,6.40
2018,02,18,14,24,7.60
2018,02,18,14,25,4.80
2018,02,18,14,26,5.60
2018,02,18,14,27,8.70
2018,02,18,14,28,8.30
2018,02,18,14,29,6.60
2018,02,18,14,30,8.10
2018,02,18,14,31,7.20
2018,02,18,14,32,5.80
2018,02,18,14,33,7.40
2018,02,18,14,34,7.60
2018,02,18,14,35,7.20
2018,02,18,14,36,5.30
2018,02,18,14,37,3.60
2018,02,18,14,38,9.50
2018,02,18,14,39,7.70
2018,02,18,14,40,7.40
2018,02,18,14,41,5.90
2018,02,18,14,42,6.40
2018,02,18,14,43,6.00
2018,02,18,14,44,6.70
2018,02,18,14,45,2.80
2018,02,18,14,46,6.70
2018,02,18,14,47,5.60
2018,02,18,14,48,6.20
2018,02,18,14,49,6.10
2018,02,18,14,50,11.70
2018,02,18,14,51,5.20
2018,02,18,14,52,8.80
2018,02,18,14,53,7.10
2018,02,18,14,54,4.90
2018,02,18,14,55,4.40
2018,02,18,14,56,6.40
2018,02,18,14,57,8.00
2018,02,18,14,58,5.70
2018,02,18,14,59,3.80
2018,02,18,15,00,9.00
2018,02,18,15,01,9.00
2018,02,18,15,02,4.30
2018,02,18,15,03,5.50
2018,02,18,15,04,5.90
2018,02,18,15,05,5.80
2018,02,18,15,06,5.80
2018,02,18,15,07,10.00
2018,02,18,15,08,7.50
2018,02,18,15,09,8.60
2018,02,18,15,10,5.80
2018,02,18,15,11,7.60
2018,02,18,15,12,4.60
2018,02,18,15,13,6.10
2018,02,18,15,14,3.80
2018,02,18,15,15,4.80
2018,02,18,15,16,7.60
2018,02,18,15,17,10.20
2018,02,18,15,18,4.40
2018,02,18,15,19,5.20
2018,02,18,15,20,4.60
2018,02,18,15,21,4.00
2018,02,18,15,22,7.20
2018,02,18,15,23,8.10
2018,02,18,15,24,7.60
2018,02,18,15,25,4.90
2018,02,18,15,26,10.10
2018,02,18,15,27,6.90
2018,02,18,15,28,5.90
2018,02,18,15,29,2.30
2018,02,18,15,30,6.40
2018,02,18,15,31,4.80
2018,02,18,15,32,6.40
2018,02,18,15,33,6.00
2018,02,18,15,34,3.10
2018,02,18,15,35,7.60
2018,02,18,15,36,5.00
2018,02,18,15,37,5.10
2018,02,18,15,38,5.50
2018,02,18,15,39,3.50
2018,02,18,15,40,7.70
2018,02,18,15,41,3.90
2018,02,18,15,42,6.30
2018,02,18,15,43,6.00
2018,02,18,15,44,6.30
2018,02,18,15,45,5.60
2018,02,18,15,46,6.00
2018,02,18,15,47,4.60
2018,02,18,15,48,9.30
2018,02,18,15,49,8.50
2018,02,18,15,50,5.40
2018,02,18,15,51,4.20
2018,02,18,15,52,4.40
2018,02,18,15,53,3.50
2018,02,18,15,54,6.10
2018,02,18,15,55,3.70
2018,02,18,15,56,3.60
2018,02,18,15,57,5.10
2018,02,18,15,58,5.70
2018,02,18,15,59,6.20
2018,02,18,16,00,2.70
2018,02,18,16,01,5.50
2018,02,18,16,02,4.20
2018,02,18,16,03,7.00
2018,02,18,16,04,5.10
2018,02,18,16,05,3.40
2018,02,18,16,06,7.40
2018,02,18,16,07,6.60
2018,02,18,16,08,4.00
2018,02,18,16,09,5.50
2018,02,18,16,10,3.40
2018,02,18,16,11,7.70
2018,02,18,16,12,4.50
2018,02,18,16,13,3.10
2018,02,18,16,14,7.30
2018,02,18,16,15,9.00
2018,02,18,16,16,5.10
2018,02,18,16,17,6.10
2018,02,18,16,18,2.90
2018,02,18,16,19,6.40
2018,02,18,16,20,3.70
2018,02,18,16,21,2.10
2018,02,18,16,22,7.70
2018,02,18,16,23,8.40
2018,02,18,16,24,4.30
2018,02,18,16,25,4.00
2018,02,18,16,26,7.10
2018,02,18,16,27,4.00
2018,02,18,16,28,2.90
2018,02,18,16,29,9.70
2018,02,18,16,30,3.90
2018,02,18,16,31,6.40
2018,02,18,16,32,9.70
2018,02,18,16,33,5.10
2018,02,18,16,34,4.00
2018,02,18,16,35,6.10
2018,02,18,16,36,7.60
2018,02,18,16,37,6.70
2018,02,18,16,38,2.70
2018,02,18,16,39,6.90
2018,02,18,16,40,6.60
2018,02,18,16,41,5.00
2018,02,18,16,42,5.90
2018,02,18,16,43,1.50
2018,02,18,16,44,7.70
2018,02,18,16,45,7.10
2018,02,18,16,46,3.40
2018,02,18,16,47,7.70
2018,02,18,16,48,2.50
2018,02,18,16,49,9.70
2018,02,18,16,50,5.90
2018,02,18,16,51,5.70
2018,02,18,16,52,5.40
2018,02,18,16,53,4.50
2018,02,18,16,54,5.90
2018,02,18,16,55,4.30
2018,02,18,16,56,4.90
2018,02,18,16,57,5.30
2018,02,18,16,58,6.40
2018,02,18,16,59,6.50
2018,02,18,17,00,4.10
2018,02,18,17,01,4.10
2018,02,18,17,02,6.80
2018,02,18,17,03,3.40
2018,02,18,17,04,3.00
2018,02,18,17,05,3.60
2018,02,18,17,06,7.10
2018,02,18,17,07,7.10
2018,02,18,17,08,5.10
2018,02,18,17,09,5.00
2018,02,18,17,10,9.20
2018,02,18,17,11,4.20
2018,02,18,17,12,2.50
2018,02,18,17,13,3.50
2018,02,18,17,14,4.80
2018,02,18,17,15,2.50
2018,02,18,17,16,3.30
2018,02,18,17,17,6.10
2018,02,18,17,18,3.10
2018,02,18,17,19,2.80
2018,02,18,17,20,5.10
2018,02,18,17,21,2.70
2018,02,18,17,22,8.90
2018,02,18,17,23,7.00
2018,02,18,17,24,3.40
2018,02,18,17,25,4.90
2018,02,18,17,26,2.40
2018,02,18,17,27,3.40
2018,02,18,17,28,4.80
2018,02,18,17,29,4.40
2018,02,18,17,30,7.40
2018,02,18,17,31,7.70
2018,02,18,17,32,5.30
2018,02,18,17,33,5.40
2018,02,18,17,34,2.90
2018,02,18,17,35,2.20
2018,02,18,17,36,3.00
2018,02,18,17,37,1.50
2018,02,18,17,38,5.80
2018,02,18,17,39,5.90
2018,02,18,17,40,3.10
2018,02,18,17,41,3.20
2018,02,18,17,42,4.30
2018,02,18,17,43,5.00
2018,02,18,17,44,5.00
2018,02,18,17,45,6.00
2018,02,18,17,46,4.50
2018,02,18,17,47,5.30
2018,02,18,17,48,2.50
2018,02,18,17,49,6.00
2018,02,18,17,50,5.30
2018,02,18,17,51,2.60
2018,02,18,17,52,6.10
2018,02,18,17,53,4.80
2018,02,18,17,54,5.80
2018,02,18,17,55,5.10
2018,02,18,17,56,1.90
2018,02,18,17,57,5.10
2018,02,18,17,58,6.20
2018,02,18,17,59,3.50
2018,02,18,18,00,4.60
2018,02,18,18,01,4.10
2018,02,18,18,02,5.70
2018,02,18,18,03,4.90